Luke AFB, AZ

6:05 PM MST on December 02, 2016 (GMT -0700)
Luke Air Force Base

Weather History for KLUF - February, 2013

Change the Weather History Date:

Monday, February 18, 2013

  Actual Average Record
Temperature  
Mean Temperature 56 °F -  
Max Temperature 72 °F 72 °F 87 °F (1981)
Min Temperature 41 °F 40 °F 27 °F (1990)
Degree Days  
Heating Degree Days 8    
Growing Degree Days 6 (Base 50)    
Moisture  
Dew Point 27 °F    
Average Humidity 36    
Maximum Humidity 62    
Minimum Humidity 15    
Precipitation  
Precipitation 0.00 in - - ()
Sea Level Pressure  
Sea Level Pressure 29.94 in    
Wind  
Wind Speed 5 mph (North)    
Max Wind Speed 10 mph    
Max Gust Speed -    
Visibility 10 miles    
Events      
Averages and records for this station are not official NWS values.
T = Trace of Precipitation, MM = Missing Value Source: NWS Daily Summary

Daily Weather History Graph

Daily Weather History Graph

Search for Another Location

Airport or City:

Trip Planner

Search our weather history database for the weather conditions in past years. The results will help you decide how hot, cold, wet, or windy it might be!

Date:

Astronomy

Feb. 18, 2013 Rise Set
Actual Time 7:10 AM MST 6:17 PM MST
Civil Twilight 6:44 AM MST 6:42 PM MST
Nautical Twilight 6:15 AM MST 7:11 PM MST
Astronomical Twilight 5:46 AM MST 7:40 PM MST
Moon 12:14 PM MST (2/18) 1:45 AM MST (2/18)
Length of Visible Light 11h 57m
Length of Day
11h 06m
First Quarter, 59% of the Moon is Illuminated
Feb 18
First Quarter
Feb 25
Full
Mar 4
Last Quarter
Mar 11
New
Mar 19
First Quarter

Hourly Weather History & Observations

Time (MST) Temp. Windchill Dew Point Humidity Pressure Visibility Wind Dir Wind Speed Gust Speed Precip Events Conditions
12:58 AM 53.4 °F - 23.7 °F 32% 29.91 in 10.0 mi ESE 2.3 mph - N/A   Clear
1:58 AM 47.5 °F - 25.0 °F 41% 29.91 in 10.0 mi NW 3.5 mph - N/A   Clear
2:58 AM 45.3 °F 43.0 °F 27.0 °F 49% 29.93 in 10.0 mi NW 4.6 mph - N/A   Clear
3:58 AM 44.2 °F 41.8 °F 25.5 °F 48% 29.93 in 10.0 mi NNW 4.6 mph - N/A   Clear
4:58 AM 42.3 °F 39.4 °F 27.3 °F 56% 29.95 in 10.0 mi North 4.6 mph - N/A   Clear
5:58 AM 41.0 °F 36.4 °F 28.9 °F 62% 29.97 in 10.0 mi NNW 6.9 mph - N/A   Clear
6:58 AM 41.4 °F 36.2 °F 27.7 °F 58% 29.99 in 10.0 mi NNW 8.1 mph - N/A   Clear
7:58 AM 43.0 °F 37.7 °F 29.5 °F 59% 30.02 in 10.0 mi North 9.2 mph - N/A   Clear
8:58 AM 51.1 °F - 27.1 °F 40% 30.04 in 10.0 mi North 5.8 mph - N/A   Clear
9:58 AM 57.7 °F - 24.8 °F 28% 30.04 in 10.0 mi NNE 5.8 mph - N/A   Clear
10:58 AM 61.0 °F - 25.3 °F 26% 30.04 in 10.0 mi East 6.9 mph - N/A   Clear
11:58 AM 64.9 °F - 25.7 °F 23% 30.02 in 10.0 mi Variable 1.2 mph - N/A   Clear
12:58 PM 68.0 °F - 25.3 °F 20% 29.98 in 10.0 mi ESE 4.6 mph - N/A   Clear
1:58 PM 69.8 °F - 23.5 °F 18% 29.95 in 10.0 mi Calm Calm - N/A   Clear
2:58 PM 70.5 °F - 23.9 °F 17% 29.93 in 10.0 mi Variable 2.3 mph - N/A   Clear
3:58 PM 72.1 °F - 22.5 °F 15% 29.91 in 10.0 mi Variable 2.3 mph - N/A   Clear
4:58 PM 72.0 °F - 22.3 °F 15% 29.91 in 10.0 mi North 2.3 mph - N/A   Clear
5:58 PM 68.7 °F - 30.6 °F 24% 29.90 in 10.0 mi North 5.8 mph - N/A   Clear
6:58 PM 64.2 °F - 30.0 °F 28% 29.89 in 10.0 mi North 4.6 mph - N/A   Clear
7:58 PM 59.0 °F - 30.9 °F 35% 29.89 in 10.0 mi NW 5.8 mph - N/A   Clear
8:58 PM 53.8 °F - 32.9 °F 45% 29.89 in 10.0 mi NNW 9.2 mph - N/A   Clear
9:58 PM 51.6 °F - 30.0 °F 44% 29.88 in 10.0 mi NNW 10.4 mph - N/A   Clear
10:58 PM 50.0 °F - 28.0 °F 43% 29.88 in 10.0 mi North 6.9 mph - N/A   Clear
11:58 PM 48.9 °F - 31.1 °F 50% 29.88 in 10.0 mi North 4.6 mph - N/A   Clear